This is the latest recevied weather packets stored in our database for station/object K4AGR-13. If no packets are shown the sender has not sent any weather packets the latest 10 day(s).
| Time | Temp. | Humidity | Pressure | Rain* | Wind** | Luminosity | Snow |
|---|---|---|---|---|---|---|---|
| 1788139952 | 81° F | 74% | 763.2 mmHg | 0 in | - | 0 W/m² | - |
| 1788139648 | 82° F | 74% | 763.3 mmHg | 0 in | - | 0 W/m² | - |
| 1788139343 | 82° F | 75% | 763.3 mmHg | 0 in | - | 0 W/m² | - |
| 1788139042 | 82° F | 75% | 763.3 mmHg | 0 in | - | 0 W/m² | - |
| 1788138738 | 82° F | 76% | 763.2 mmHg | 0 in | - | 0 W/m² | - |
| 1788138434 | 82° F | 76% | 763.1 mmHg | 0 in | - | 0 W/m² | - |
| 1788138129 | 82° F | 76% | 763 mmHg | 0 in | - | 0 W/m² | - |
| 1788137829 | 82° F | 76% | 763.2 mmHg | 0 in | - | 0 W/m² | - |
| 1788137524 | 82° F | 76% | 763 mmHg | 0 in | - | 0 W/m² | - |
| 1788137219 | 82° F | 76% | 763.1 mmHg | 0 in | - | 0 W/m² | - |
| 1788136915 | 83° F | 76% | 763.1 mmHg | 0 in | - | 0 W/m² | - |
| 1788136611 | 83° F | 76% | 763 mmHg | 0 in | - | 0 W/m² | - |
| 1788136307 | 83° F | 75% | 763.1 mmHg | 0 in | - | 0 W/m² | - |
| 1788136005 | 83° F | 74% | 763 mmHg | 0 in | - | 0 W/m² | - |
| 1788135700 | 84° F | 74% | 763 mmHg | 0 in | - | 0 W/m² | - |
| 1788135397 | 84° F | 73% | 763.1 mmHg | 0 in | - | 2 W/m² | - |
| 1788135091 | 84° F | 72% | 762.9 mmHg | 0 in | - | 4 W/m² | - |
| 1788134789 | 84° F | 72% | 763 mmHg | 0 in | - | 4 W/m² | - |
| 1788134488 | 84° F | 71% | 762.8 mmHg | 0 in | - | 7 W/m² | - |
| 1788134187 | 85° F | 70% | 762.7 mmHg | 0 in | - | 12 W/m² | - |
| 1788133882 | 85° F | 70% | 762.7 mmHg | 0 in | - | 18 W/m² | - |
| 1788133577 | 85° F | 69% | 762.6 mmHg | 0 in | - | 25 W/m² | - |
| 1788133272 | 86° F | 69% | 762.7 mmHg | 0 in | - | 31 W/m² | - |
| 1788132968 | 86° F | 67% | 762.7 mmHg | 0 in | - | 37 W/m² | - |
| 1788132664 | 86° F | 68% | 762.6 mmHg | 0 in | - | 44 W/m² | - |
* Rain latest hour (hover to see other rain measurements)
** Current wind speed in m/s (hover to see current wind gust speed)